logo tempoitalia

Diretta Meteo Maastricht Zuid Limburg, Olandalunedì 31 agosto ore 07:25

Mappa
Sereno 17 °C Molto Nuvoloso 24 Ore: T.min 17 T.max 23
Ponente Sud-Ovest Km/h 27.8 Punto di rugiada: 14 °C Umidità: 82% Visibilità: 10 Km
Il sole sorge alle: 06:49 Il sole tramonta alle: 20:25
31 Agosto 2026 07:25 tempo osservato: Molto Nuvoloso Molto Nuvoloso 17 82 1010 vento: Nord SO 27.8
31 Agosto 2026 06:55 tempo osservato: Nuvoloso Nuvoloso 17 82 1010 vento: Nord S/SO 20.3
31 Agosto 2026 06:25 tempo osservato: Molto Nuvoloso Molto Nuvoloso 17 82 1010 vento: Nord S/SO 20.3
31 Agosto 2026 05:55 tempo osservato: Sereno Sereno 17 82 1010 vento: Nord S/SO 20.3
31 Agosto 2026 05:25 tempo osservato: Molto Nuvoloso Molto Nuvoloso 17 77 1010 vento: Nord SO 22.2
31 Agosto 2026 04:55 tempo osservato: Sereno Sereno 17 82 1010 vento: Nord SO 22.2
31 Agosto 2026 04:25 tempo osservato: Sereno Sereno 17 82 1010 vento: Nord S/SO 20.3
31 Agosto 2026 03:55 tempo osservato: Sereno Sereno 17 88 1010 vento: Nord S/SO 20.3
31 Agosto 2026 03:25 tempo osservato: Sereno Sereno 17 88 1010 vento: Nord S/SO 20.3
31 Agosto 2026 02:55 tempo osservato: Pioggia Pioggia 17 82 1010 vento: Nord S 22.2
31 Agosto 2026 02:25 tempo osservato: Pioggia Pioggia 19 68 1010 vento: Nord S/SO 20.3
31 Agosto 2026 01:55 tempo osservato: Poco Nuvoloso Poco Nuvoloso 18 72 1010 vento: Nord S 14.8
31 Agosto 2026 01:25 tempo osservato: Sereno Sereno 18 72 1010 vento: Nord S 14.8
31 Agosto 2026 00:55 tempo osservato: Sereno Sereno 18 77 1010 vento: Nord S 13
31 Agosto 2026 00:25 tempo osservato: Sereno Sereno 19 72 1011 vento: Nord S 11.1
30 Agosto 2026 23:55 tempo osservato: Sereno Sereno 19 72 1011 vento: Nord S 13
30 Agosto 2026 23:25 tempo osservato: Sereno Sereno 19 72 1011 vento: Nord S 13
30 Agosto 2026 22:55 tempo osservato: Sereno Sereno 19 72 1011 vento: Nord S 9.3
30 Agosto 2026 22:25 tempo osservato: Sereno Sereno 20 68 1011 vento: Nord S 11.1
30 Agosto 2026 21:55 tempo osservato: Sereno Sereno 20 68 1011 vento: Nord S 11.1
30 Agosto 2026 21:25 tempo osservato: Poco Nuvoloso Poco Nuvoloso 20 68 1012 vento: Nord S/SE 7.4
30 Agosto 2026 20:55 tempo osservato: Sereno Sereno 20 68 1012 vento: Nord S/SO 9.3
30 Agosto 2026 20:25 tempo osservato: Molto Nuvoloso Molto Nuvoloso 21 64 1012 vento: Nord S/SO 13
30 Agosto 2026 19:55 tempo osservato: Poco Nuvoloso Poco Nuvoloso 21 64 1012 vento: Nord S 9.3
30 Agosto 2026 19:25 tempo osservato: Sereno Sereno 22 64 1012 vento: Nord SO 9.3
30 Agosto 2026 18:55 tempo osservato: Sereno Sereno 22 56 1012 vento: Nord O/SO 13
30 Agosto 2026 18:25 tempo osservato: Sereno Sereno 22 56 1012 vento: Nord SO 22.2
30 Agosto 2026 17:55 tempo osservato: Sereno Sereno 22 56 1012 vento: Nord O/SO 16.7
30 Agosto 2026 17:25 tempo osservato: Sereno Sereno 22 56 1012 vento: Nord O/SO 16.7
30 Agosto 2026 16:55 tempo osservato: Sereno Sereno 22 56 1013 vento: Nord O/SO 16.7
30 Agosto 2026 16:25 tempo osservato: Poco Nuvoloso Poco Nuvoloso 22 56 1013 vento: Nord SO 24
30 Agosto 2026 15:55 tempo osservato: Poco Nuvoloso Poco Nuvoloso 23 53 1013 vento: Nord SO 24
30 Agosto 2026 15:25 tempo osservato: Sereno Sereno 22 56 1013 vento: Nord O/SO 25.9
30 Agosto 2026 14:55 tempo osservato: Poco Nuvoloso Poco Nuvoloso 22 60 1013 vento: Nord O/SO 22.2
30 Agosto 2026 14:25 tempo osservato: Sereno Sereno 22 56 1013 vento: Nord SO 24
30 Agosto 2026 13:55 tempo osservato: Nuvoloso Nuvoloso 21 64 1013 vento: Nord SO 27.8
30 Agosto 2026 13:25 tempo osservato: Poco Nuvoloso Poco Nuvoloso 22 64 1013 vento: Nord SO 24
30 Agosto 2026 12:55 tempo osservato: Molto Nuvoloso Molto Nuvoloso 20 68 1013 vento: Nord SO 24
30 Agosto 2026 12:25 tempo osservato: Coperto Coperto 20 68 1013 vento: Nord SO 27.8
30 Agosto 2026 11:55 tempo osservato: Coperto Coperto 21 68 1013 vento: Nord SO 33.3
30 Agosto 2026 11:25 tempo osservato: Coperto Coperto 19 72 1012 vento: Nord SO 29.6
30 Agosto 2026 10:55 tempo osservato: Coperto Coperto 19 72 1012 vento: Nord SO 27.8
30 Agosto 2026 10:25 tempo osservato: Pioggia Pioggia 18 77 1012 vento: Nord SO 31.5
30 Agosto 2026 09:55 tempo osservato: Molto Nuvoloso Molto Nuvoloso 18 77 1012 vento: Nord SO 33.3
30 Agosto 2026 09:25 tempo osservato: Coperto Coperto 18 77 1011 vento: Nord SO 33.3
30 Agosto 2026 08:55 tempo osservato: Pioggia Pioggia 17 82 1011 vento: Nord SO 33.3
30 Agosto 2026 08:25 tempo osservato: Coperto Coperto 17 77 1011 vento: Nord SO 29.6
30 Agosto 2026 07:55 tempo osservato: Coperto Coperto 17 77 1011 vento: Nord SO 33.3